CAPE
984 932 958 980 1023 1086 1060 910 939 1460 2497 2737 2924 2669 2845 2839 2789 2988 2539 2190 1653 1830 1353 2592 2245 2044 2496 2421 2295 2411 1952 1611 1118
753 848 935 905 1041 1001 1112 954 1129 1541 2347 2644 2861 3009 3073 3154 3116 2991 2629 2214 1800 1510 1923 1988 1984 2492 2593 2475 2582 2396 2310 1537 1211
514 672 853 934 1169 1122 1101 1014 1165 1314 2304 2489 2871 2969 3255 3228 3433 3283 2998 2889 2226 2168 2228 1796 2621 2831 2753 2575 2760 2558 2452 2236 1381
432 599 680 814 1115 1208 1276 1221 1183 1484 2163 2605 3083 2944 2967 2960 3211 3389 3284 2790 2742 2237 2411 2445 2452 2658 3011 3045 2789 2646 2562 2272 2153
423 434 497 753 934 1189 1394 1448 1566 1793 1936 2263 2955 2868 2861 2805 2896 2824 3048 3002 2918 2733 2714 3030 2791 3141 3198 3257 3360 3047 2718 2692 2187
844 901 656 722 999 1343 1589 1728 1877 1633 2243 2292 2697 2765 2473 2456 2586 2637 2650 2866 2479 2788 2855 2901 3167 3236 3349 3578 3655 3534 3228 2901 2612
1238 1205 1017 951 1170 1536 1799 2409 2167 2460 2461 2591 2768 2624 1585 1137 1208 1349 1671 1613 2084 2989 2774 3009 3493 3431 3548 3445 3477 3574 3444 3221 2916
1527 1457 1118 1110 1691 2081 2629 2701 2925 2980 2871 2853 2668 1955 1985 1588 1500 1501 2005 2474 2495 2756 2960 3417 3422 3477 3790 3617 3649 3305 3342 3415 3032
1564 1392 1378 1810 2033 2200 2694 2903 2967 3248 3230 2906 2457 2076 2385 2616 2364 3041 3050 3279 3414 3405 3402 3342 3440 3415 3471 3610 3708 3302 2867 2747 419
1637 1620 1892 2240 2303 2438 2831 3079 3208 3110 3370 3286 3115 3049 2947 3063 3177 3172 3368 3620 3780 3495 3461 3435 3408 3330 3208 3137 3006 2906 2353 1144 0
1687 1939 2631 2740 2833 2989 3129 3166 3440 3640 3678 3751 3934 3911 3958 4171 4114 3906 3649 3446 3220 3127 3340 3514 3684 3650 3694 3458 3696 3313 2445 1537 543
1986 2633 3022 2937 2928 2956 2713 2985 3305 3478 3698 4095 4146 3490 3247 3340 3312 3071 2396 1728 1556 1687 2076 2272 2242 2218 2126 2825 3382 3182 2259 1684 1080
2569 2818 2649 2654 2156 1782 1994 2542 2769 2305 2628 1973 1708 2350 2583 2368 1856 1407 1299 1231 1380 1592 1882 1665 2152 793 955 801 1723 1859 1768 1633 1610
2815 2648 2223 1586 1479 1219 2169 1958 2262 2093 2330 2694 2889 2700 2515 1944 1507 1155 1271 1654 1979 1967 1952 1906 1661 1674 1850 1911 1907 1894 1714 1439 1705
2281 2060 1508 1299 1079 1436 1828 1864 2076 2217 2137 2304 2145 1736 1787 1450 1242 1275 1816 1757 1920 1921 1898 1934 1710 1792 1610 1915 1565 1668 1262 1279 1054
2132 1878 1044 991 1359 1615 1648 2034 1870 2605 2673 2315 1998 1999 1928 1521 1296 1448 1725 1877 1842 1900 1861 1768 1321 520 283 210 433 1373 890 559 682
1983 1710 905 1183 1417 1800 1875 2367 2493 3040 2818 3436 3043 2849 2761 2031 1704 1798 1894 1962 1519 964 1054 424 423 372 200 336 528 851 954 1181 791
2214 1984 1673 1084 1487 1823 2766 3181 3466 3511 4052 4084 3776 3428 2514 1910 1744 1621 1708 1573 1067 560 429 138 38 96 247 411 539 512 99 148 378
2536 2381 2267 2397 3107 3622 3614 3505 3023 2563 2319 2236 2278 2243 2022 1648 1042 958 677 351 313 157 0 0 0 11 97 534 532 240 20 0 0
2694 3003 3117 3192 3045 3065 2861 2535 2615 2462 2257 2090 1970 1726 1348 918 403 291 167 92 228 24 4 10 2 0 0 0 0 0 0 0 0
CIN
-23 -18 -11 -18 -27 -10 -23 -51 -73 -42 -58 -48 -48 -48 -43 -41 -27 -14 -20 -20 -15 -3 -12 -14 -11 -18 -10 -20 -17 -6 -6 -8 -18
-20 -13 -14 -32 -29 -27 -23 -65 -92 -80 -79 -71 -58 -56 -53 -40 -37 -23 -13 -6 -10 -14 -12 -35 -95 -7 -7 -4 -5 -7 -2 -13 -9
-7 -4 -5 -7 -9 -18 -42 -68 -104 -109 -119 -98 -92 -73 -47 -42 -31 -25 -13 -3 -12 -9 -3 -8 -7 -9 -14 -13 -6 -6 -3 -2 -19
-7 -5 -12 -4 -4 -9 -15 -79 -85 -83 -106 -106 -101 -71 -52 -42 -25 -18 -21 -25 -20 -28 -17 -15 -20 -23 -15 -2 -11 -9 -7 -14 -3
-38 -12 -5 -11 -6 -5 -14 -49 -73 -82 -97 -78 -87 -74 -37 -44 -25 -32 -36 -27 -17 -31 -30 -22 -18 -12 -11 -4 -2 -2 -6 -8 -9
-22 -22 -6 -14 -3 -10 -9 -30 -80 -95 -79 -68 -81 -73 -92 -74 -47 -28 -7 -12 -26 -4 -8 -15 -6 -6 -3 -1 0 -1 -3 -7 -15
-25 -32 -25 -5 -5 -17 -21 -36 -68 -78 -77 -78 -82 -113 -152 -165 -201 -185 -117 -103 -53 -6 -20 -16 -2 -5 -2 -6 -2 -1 -2 -2 -6
-35 -31 -26 -23 -19 -43 -60 -76 -75 -90 -108 -107 -119 -148 -130 -148 -163 -158 -107 -62 -55 -37 -28 -14 -17 -14 -2 -3 -2 -12 -7 -1 -2
-30 -29 -32 -46 -68 -94 -79 -103 -111 -117 -133 -126 -152 -155 -126 -100 -102 -50 -49 -34 -24 -23 -30 -28 -12 -6 -3 -2 -1 -2 -8 -5 -207
-39 -45 -53 -86 -112 -104 -118 -131 -144 -134 -119 -128 -131 -111 -76 -35 -28 -35 -23 -10 -10 -16 -15 -13 -11 -10 -13 -11 -9 -16 -27 -115 0
-41 -48 -92 -97 -84 -84 -105 -108 -107 -121 -131 -113 -70 -30 -12 -3 -3 -5 -4 -2 -5 -11 -9 -4 -2 -4 -2 -3 -5 -9 -24 -95 -246
-35 -59 -72 -63 -57 -71 -100 -110 -108 -113 -96 -55 -33 -39 -43 -34 -23 -26 -37 -45 -63 -62 -52 -41 -40 -29 -23 -6 -3 -6 -26 -61 -114
-32 -63 -49 -47 -77 -127 -126 -118 -116 -124 -103 -118 -97 -64 -53 -58 -62 -76 -79 -81 -83 -81 -64 -63 -30 -81 -64 -94 -22 -33 -44 -48 -45
-17 -38 -37 -81 -120 -168 -122 -129 -112 -125 -95 -56 -42 -47 -48 -65 -90 -102 -88 -73 -62 -65 -52 -45 -41 -31 -29 -29 -31 -28 -63 -86 -57
-33 -29 -68 -94 -123 -103 -99 -104 -96 -70 -68 -54 -59 -86 -79 -87 -106 -88 -45 -57 -46 -42 -39 -31 -25 -14 -12 -11 -17 -27 -87 -110 -95
-23 -25 -63 -72 -86 -62 -74 -63 -63 -2 -12 -36 -63 -61 -61 -92 -88 -73 -52 -41 -37 -32 -19 -11 -7 -45 -114 -142 -61 -18 -113 -132 -96
-22 -3 -55 -34 -34 -15 -32 -9 -5 -5 -13 -9 -13 -14 -17 -52 -50 -45 -28 -11 -11 -3 -4 -33 -30 -56 -125 -74 -47 -16 -30 -33 -57
-4 -4 -12 -15 -5 -11 -11 -11 -6 -6 -5 -7 -7 -3 -18 -30 -11 -7 -6 -6 -7 -10 -9 -47 -139 -111 -70 -40 -12 -30 -101 -193 -103
-2 -2 -5 -9 -14 -26 -27 -20 -34 -74 -81 -70 -36 -18 -10 -10 -27 -18 -25 -30 -31 -52 0 0 0 -20 -72 -10 -8 -56 -38 0 0
-66 -47 -38 -43 -59 -56 -58 -66 -51 -48 -48 -59 -54 -44 -34 -32 -75 -64 -63 -80 -44 -149 -61 -48 -29 -1 0 0 -1 0 0 0 0
Wind_Speed
20 21 23 22 20 19 19 20 19 17 16 13 13 14 13 11 13 12 12 10 11 6 10 11 11 13 14 15 15 14 13 13 13
18 20 22 22 20 19 18 18 17 16 16 13 13 15 14 11 8 8 8 12 11 10 8 10 11 12 11 14 14 13 13 13 13
15 17 19 20 21 19 19 18 16 14 14 13 14 15 13 10 5 1 2 17 6 7 14 7 8 9 12 12 11 11 11 11 12
12 14 14 18 19 17 16 18 17 14 13 13 13 13 11 7 5 5 9 14 11 6 8 16 12 10 9 8 8 8 8 8 9
3 10 13 22 17 18 16 16 15 13 12 11 12 12 12 11 13 21 21 27 14 9 6 4 6 9 6 5 5 4 4 4 5
4 9 5 12 14 17 12 14 12 10 10 11 12 12 13 13 13 19 22 18 18 13 5 4 4 5 7 6 5 4 2 2 1
4 4 7 9 12 15 11 10 7 8 9 8 9 9 10 12 10 12 14 22 21 10 8 13 11 9 9 7 7 7 6 6 6
5 7 10 9 13 13 12 9 7 6 7 7 8 9 9 8 7 7 6 7 16 19 18 16 13 14 13 11 9 9 8 9 10
2 5 9 8 10 13 13 9 6 5 6 7 9 9 8 8 7 7 7 9 13 17 18 19 19 19 16 16 15 13 12 12 10
6 5 7 8 11 13 12 10 8 8 11 13 11 10 8 7 7 7 6 4 6 10 16 20 17 18 19 18 20 15 15 22 12
9 10 8 9 13 14 15 15 15 15 15 14 13 13 12 12 11 11 10 11 12 14 16 17 19 20 20 21 20 17 20 17 9
7 8 11 14 15 16 17 18 17 15 15 15 16 16 16 16 15 15 15 15 17 18 20 21 21 19 18 19 23 26 22 16 12
6 8 15 17 18 17 18 16 15 14 13 14 15 15 15 15 15 15 15 16 18 19 21 24 27 29 29 27 26 20 18 14 16
7 9 14 16 16 17 16 15 13 13 12 12 12 13 14 14 15 15 16 17 20 22 23 24 23 22 23 21 20 16 12 11 15
8 10 12 13 14 14 13 14 10 11 10 10 11 12 13 14 16 17 17 21 24 26 25 23 19 20 25 22 18 13 8 8 9
12 10 10 11 11 10 10 9 9 8 9 9 9 11 12 15 17 20 21 23 24 23 20 19 28 36 38 37 37 32 17 14 17
11 11 9 8 7 5 7 6 7 10 8 9 9 11 13 16 15 14 15 18 20 23 27 33 30 30 34 33 31 25 24 25 24
8 6 3 5 8 3 4 6 7 10 13 14 14 15 15 14 14 18 18 16 26 28 28 28 29 28 28 28 28 30 29 29 28
6 6 7 6 7 6 6 9 11 13 14 14 15 15 14 17 19 25 26 26 26 27 28 30 26 25 23 25 27 29 32 34 33
8 9 10 11 10 10 10 10 12 15 16 17 17 17 17 19 24 23 25 26 27 30 29 29 28 27 29 29 29 34 36 38 37
Wind_Direction
154 152 150 150 144 141 135 135 134 132 131 129 135 145 143 136 153 146 144 125 141 46 330 353 2 127 112 86 89 108 102 114 134
140 146 149 143 139 137 132 131 130 125 128 124 132 144 146 138 126 133 126 145 134 149 31 38 85 119 112 66 75 91 103 115 131
123 136 145 142 142 140 134 133 128 124 125 126 130 145 139 133 106 86 60 294 83 84 321 3 66 61 38 52 74 90 101 110 117
124 134 135 141 140 140 137 136 135 126 124 126 130 132 125 101 37 310 302 293 313 120 349 310 341 4 27 61 72 90 96 112 64
80 135 159 136 129 138 140 137 130 126 123 119 123 119 128 121 122 163 178 216 159 138 128 92 352 350 13 32 45 70 81 84 78
14 330 68 85 124 132 130 138 130 128 114 113 112 101 114 120 132 179 199 171 175 158 109 112 20 357 345 345 346 350 349 344 310
40 74 52 87 116 119 109 113 117 109 102 86 83 87 118 144 123 140 153 205 208 332 344 328 332 332 328 321 319 312 303 291 293
78 89 94 80 92 95 93 96 85 77 66 43 53 104 110 73 80 89 66 351 316 313 315 322 327 322 318 313 306 301 281 286 299
92 94 90 73 77 89 95 88 74 55 55 69 98 112 81 48 64 45 23 354 334 324 324 320 318 316 317 312 309 301 273 271 305
132 102 90 88 87 90 94 90 87 86 90 93 85 76 68 82 101 120 128 96 31 359 339 327 331 326 323 319 315 306 293 308 291
130 114 99 97 100 99 102 103 100 93 88 82 66 60 54 63 77 73 67 47 26 9 360 351 344 340 336 331 329 327 324 322 309
134 115 105 111 105 101 99 102 99 89 81 70 60 54 57 68 68 60 51 34 15 3 357 355 353 355 350 342 335 330 332 333 329
127 120 120 112 106 101 100 98 97 84 80 68 70 60 65 57 46 41 30 20 14 6 358 351 344 337 339 339 335 337 340 338 337
119 119 114 110 104 106 107 102 95 87 78 61 49 39 27 26 23 17 16 10 1 356 353 351 352 352 349 348 347 342 336 337 341
125 118 112 107 108 108 103 100 90 86 78 64 55 38 26 6 360 357 358 348 344 344 347 350 352 349 342 346 341 331 322 323 336
114 121 115 113 109 103 100 97 84 61 56 53 35 21 12 358 349 342 345 345 345 349 352 351 344 331 330 326 329 340 346 349 344
108 120 121 124 116 108 104 55 27 25 32 23 18 8 355 351 354 354 353 350 351 349 344 338 342 342 339 339 332 349 352 346 341
93 97 94 98 317 263 92 58 19 0 353 351 347 346 350 354 353 348 349 350 342 341 345 346 344 345 344 343 340 333 333 334 332
35 39 343 60 88 78 38 13 355 350 347 349 348 348 355 351 349 340 338 340 343 344 344 342 346 347 348 345 340 337 332 330 328
19 2 346 346 3 10 4 358 351 343 342 344 345 348 347 347 341 343 343 343 345 341 343 346 350 353 349 348 346 339 334 328 325